Regional Weather Roundup
Issued by NWS

Home | Current Version | Previous Version | Graphics & Text | Print | Product List | Glossary On
Versions: 1 2 3 4 5 6 7 8 9 10 11 12 13 14 15 16 17 18 19 20 21 22 23 24 25 26 27 28 29 30 31 32 33 34 35 36 37 38 39 40 41 42 43 44 45 46 47 48 49 50
000
ASUS44 KMEG 080310
RWRTN
TENNESSEE HOURLY STATE WEATHER ROUNDUP
NATIONAL WEATHER SERVICE MEMPHIS TN
900 PM CST WED DEC 07 2016

TNZ002-004-019-021-049-052-054-088>092-080400-
WEST TENNESSEE

CITY           SKY/WX    TMP DP  RH WIND       PRES   REMARKS
MEMPHIS INTL   CLOUDY    43  32  65 N9        30.25R
NWS MEMPHIS      N/A     42 N/A N/A MISG        N/A
JACKSON        CLOUDY    42  31  64 N7        30.23R
DYERSBURG      CLOUDY    39  27  60 N8        30.26R WCI  34
UNION CITY     CLOUDY    37  25  60 CALM      30.24R
PARIS          MOCLDY    37  23  56 N8        30.23R WCI  31
HUNTINGDON     CLOUDY    41  27  56 N3        30.22R
LEXINGTON      CLOUDY    39  28  65 N5        30.20R
$$

TNZ008-025-027-028-033-062-065-066-080400-
NORTH MIDDLE TENNESSEE

CITY           SKY/WX    TMP DP  RH WIND       PRES   REMARKS
NASHVILLE      CLOUDY    40  25  55 N9        30.21R WCI  34
PORTLAND       CLOUDY    37  27  65 N6        30.19F WCI  33
CLARKSVILLE    CLOUDY    39  23  52 N9        30.22R WCI  33
SMYRNA         PTCLDY    39  29  67 N8        30.21R WCI  33
GALLATIN       MOCLDY    39  25  56 N6        30.23S WCI  35
CROSSVILLE     CLOUDY    38  32  79 NW6       30.13R WCI  33
$$

TNZ061-075-076-078-094-096-097-080400-
SOUTH MIDDLE TENNESSEE

CITY           SKY/WX    TMP DP  RH WIND       PRES   REMARKS
FAYETTEVILLE   CLOUDY    37  34  87 N3        30.16F
TULLAHOMA      CLEAR     34  30  86 CALM      30.17F
WINCHESTER     CLOUDY    37  34  87 NW5       30.17F WCI  34
MCMINNVILLE    MOCLDY    37  34  87 CALM        N/A
COLUMBIA       MOCLDY   N/A N/A N/A CALM      30.16F
SHELBYVILLE    MOCLDY    34  34 100 CALM      30.19S
$$

TNZ017-018-042-046-047-080400-
NORTHEAST TENNESSEE

CITY           SKY/WX    TMP DP  RH WIND       PRES   REMARKS
TRI CITIES     MOCLDY    39  32  76 SW3       30.08R
ELIZABETHTON   DRIZZLE   43  39  87 CALM      30.06S
$$

TNZ012-013-036-069-073-074-080400-
CENTRAL EAST TENNESSEE

CITY           SKY/WX    TMP DP  RH WIND       PRES   REMARKS
KNOXVILLE      CLOUDY    43  34  70 NW3       30.11R
OAK RIDGE      CLOUDY    42  36  79 CALM      30.13S
DOWNTOWN KNOXV CLOUDY    45  36  70 CALM      30.12S
GATLINBURG     PTCLDY    43  36  75 W6        30.11R
MORRISTOWN     CLOUDY    45  37  76 NW3       30.09R
JACKSBORO      CLOUDY    41  32  70 SW3       30.15S
$$

TNZ083-085-099-080400-
SOUTHEAST TENNESSEE

CITY           SKY/WX    TMP DP  RH WIND       PRES   REMARKS
CHATTANOOGA    CLOUDY    45  36  70 W8        30.16R
$$

SKY/WX REPORTED AS FAIR MEANS FEW OR NO CLOUDS BELOW
12 THOUSAND FEET.





USA.gov is the U.S. government's official web portal to all federal, state and local government web resources and services.